Temperature
15 14 14 14 13 13 13 13 13 13 13 13 13 13 13 12 11 10 10 10 9 9 9 8 8 8 9 9 8 9 9 9 9 9 10 10 10 10 10 10 10 10 10
15 14 13 13 13 13 12 12 12 12 13 13 13 13 12 12 11 10 10 9 9 9 8 8 8 8 8 8 8 8 8 9 9 9 9 9 9 10 10 10 10 10 10
14 13 13 13 13 12 12 12 12 13 13 13 13 12 12 11 11 10 9 9 9 8 8 8 8 8 8 8 7 7 7 8 8 8 8 8 8 8 8 8 8 9 9
13 13 13 13 12 12 11 12 12 12 13 13 12 12 11 11 10 9 9 8 8 8 8 8 8 8 7 7 7 6 6 6 7 7 7 7 7 7 7 7 7 7 7
13 13 13 12 12 11 11 11 12 12 12 12 12 12 11 10 9 9 8 8 8 8 8 7 7 7 7 7 7 7 6 5 5 5 5 5 5 5 5 5 5 5 5
13 13 12 12 12 11 11 11 12 12 12 12 12 11 10 9 9 8 8 7 7 7 7 7 6 6 6 6 6 6 6 4 4 4 3 3 3 3 3 3 4 4 4
13 13 12 12 11 11 11 11 12 12 11 11 11 11 10 9 8 8 8 7 7 6 6 6 6 5 5 5 5 5 5 4 3 3 2 2 2 2 2 2 2 2 2
13 13 12 12 12 11 11 11 11 11 11 11 11 11 10 9 8 8 7 7 7 6 6 5 5 5 5 5 4 4 4 4 3 2 1 1 1 1 1 1 1 2 2
13 13 13 12 12 11 11 11 11 11 11 11 11 10 10 10 9 8 7 7 6 6 5 5 4 4 4 4 4 4 3 3 2 1 0 0 0 0 0 0 1 1 1
14 13 13 12 12 11 11 11 11 11 11 11 10 10 9 9 9 8 7 7 6 6 5 5 4 4 4 4 3 3 2 1 0 -0 -0 -0 -0 -0 -0 -0 0 0 0
14 13 13 12 12 11 11 11 11 11 10 10 10 9 9 8 8 7 7 6 6 5 5 4 4 4 3 2 2 2 1 0 -1 -1 -1 -1 -1 -1 -1 -1 -1 -1 -1
13 13 12 12 12 11 11 11 10 10 10 10 9 9 8 7 7 6 5 5 4 5 4 4 4 3 2 2 1 0 -0 -1 -2 -2 -2 -2 -2 -2 -2 -2 -2 -2 -2
13 13 12 12 11 11 11 10 10 10 9 9 9 8 7 7 6 5 4 3 2 3 3 3 2 1 1 0 -0 -1 -1 -2 -2 -3 -4 -3 -3 -3 -4 -4 -4 -3 -3
14 13 12 11 11 10 10 9 9 9 8 8 8 7 7 6 5 4 3 2 1 1 1 2 1 1 -1 -2 -2 -2 -2 -3 -3 -4 -4 -5 -5 -5 -5 -5 -5 -4 -4
13 12 11 11 10 9 9 9 8 8 8 7 7 6 6 5 4 3 2 1 -0 -2 -2 -1 -0 -1 -2 -2 -3 -4 -4 -4 -4 -5 -5 -6 -6 -6 -6 -5 -5 -5 -5
12 11 11 10 9 8 8 8 8 7 7 7 6 6 5 4 3 2 1 0 -1 -2 -3 -3 -3 -3 -3 -3 -4 -5 -5 -5 -5 -5 -6 -6 -6 -6 -6 -6 -6 -5 -5
11 10 10 8 7 7 7 7 7 6 6 6 5 4 4 3 2 1 0 -0 -1 -2 -3 -3 -4 -4 -4 -4 -4 -5 -5 -6 -6 -6 -6 -7 -7 -7 -7 -6 -6 -6 -6
10 9 8 7 6 6 6 6 6 6 5 5 4 3 3 2 1 0 -0 -1 -2 -3 -4 -5 -5 -5 -6 -6 -6 -6 -6 -7 -7 -6 -6 -7 -7 -7 -7 -6 -6 -6 -6
9 8 7 6 5 6 6 6 5 5 4 4 3 2 1 1 0 -0 -1 -2 -3 -4 -5 -6 -6 -7 -7 -7 -7 -7 -7 -7 -7 -7 -7 -6 -6 -6 -6 -6 -6 -6 -6
7 6 5 5 5 5 5 4 4 4 3 2 2 1 1 0 -0 -1 -2 -3 -4 -5 -6 -7 -7 -7 -8 -7 -8 -8 -8 -7 -7 -6 -6 -6 -6 -6 -6 -6 -6 -6 -6
5 4 4 4 4 4 3 3 3 2 2 1 1 0 0 -0 -1 -3 -4 -5 -6 -6 -7 -8 -8 -8 -8 -8 -8 -9 -9 -8 -7 -6 -6 -6 -6 -6 -5 -5 -6 -6 -5
3 3 3 3 2 2 2 2 2 1 1 1 0 0 -0 -1 -2 -4 -5 -6 -7 -7 -8 -8 -8 -9 -9 -8 -9 -9 -9 -9 -9 -8 -8 -8 -7 -6 -6 -6 -6 -6 -6
2 2 2 2 2 1 1 1 1 0 0 0 -0 -1 -1 -2 -4 -5 -6 -6 -7 -8 -8 -9 -9 -9 -9 -9 -9 -9 -9 -9 -9 -8 -8 -8 -7 -6 -6 -6 -6 -6 -6
2 1 1 1 1 0 0 -0 -0 -0 -0 -1 -1 -2 -3 -4 -4 -6 -7 -8 -8 -8 -8 -9 -9 -9 -9 -9 -9 -9 -9 -9 -9 -8 -8 -8 -7 -7 -7 -7 -6 -6 -6
1 1 0 0 -0 -0 -1 -1 -1 -1 -1 -2 -2 -4 -4 -5 -5 -7 -8 -9 -9 -8 -8 -9 -9 -9 -8 -8 -9 -9 -9 -9 -10 -8 -8 -9 -7 -8 -7 -7 -6 -6 -6
0 -0 -1 -1 -1 -1 -1 -2 -2 -2 -3 -3 -3 -4 -5 -6 -8 -9 -9 -9 -9 -9 -9 -8 -8 -7 -7 -7 -7 -8 -8 -9 -10 -10 -8 -9 -9 -10 -10 -8 -7 -6 -6
Wind_Speed
7 7 7 9 8 7 6 6 6 6 5 5 6 7 7 9 9 10 12 15 14 12 11 10 10 9 9 9 9 9 9 10 10 11 11 11 12 12 13 13 13 12 11
11 8 6 7 7 8 8 8 7 5 4 4 5 6 7 9 9 10 12 13 13 11 10 9 9 9 10 10 9 9 9 10 10 11 11 11 11 12 12 13 13 13 13
14 11 6 5 8 11 11 9 7 6 4 4 4 4 5 7 9 9 11 12 11 10 8 8 9 10 11 11 11 10 10 10 10 11 11 12 12 12 13 13 14 14 14
17 13 7 6 11 11 9 5 4 4 4 4 2 2 2 5 8 9 9 10 9 8 7 7 8 9 10 11 12 11 10 10 10 11 12 12 13 14 14 14 15 15 15
18 14 8 8 13 8 5 5 3 3 3 2 1 2 2 3 5 7 7 8 7 7 6 6 6 6 8 10 12 12 10 10 10 11 11 12 14 15 15 16 16 16 16
18 15 9 10 11 7 5 5 5 3 3 2 2 3 3 2 2 3 5 6 6 6 6 5 3 3 5 7 10 11 10 9 10 10 11 12 14 15 16 17 17 17 17
18 15 9 8 8 7 7 7 5 4 3 2 3 3 3 3 2 1 1 2 3 5 5 3 1 1 3 5 7 10 10 9 10 11 12 13 15 17 18 19 19 18 18
19 16 13 11 9 8 8 6 5 4 2 2 3 3 1 2 2 2 1 2 2 4 3 2 3 5 5 5 7 10 9 10 11 12 13 15 17 19 20 21 20 20 19
18 17 15 12 10 9 9 7 6 6 4 2 2 4 4 4 2 3 3 2 2 3 3 4 7 8 9 10 10 10 9 10 12 14 16 17 19 21 22 22 22 21 20
15 17 17 15 13 9 9 8 6 5 5 4 2 2 2 3 3 1 3 2 1 2 3 4 8 11 12 12 11 11 11 12 14 16 18 20 22 23 24 24 23 22 22
11 14 16 14 13 10 10 8 6 6 4 5 4 3 2 2 2 2 3 4 4 3 3 4 6 8 11 12 12 11 12 13 16 19 21 23 25 25 25 25 24 24 24
8 11 13 13 12 11 11 9 7 8 5 5 4 3 3 3 2 3 3 3 4 4 3 4 3 4 7 11 13 15 15 16 18 21 24 26 26 26 26 25 26 26 26
8 14 13 13 12 11 10 9 8 7 7 7 5 3 3 3 3 3 3 3 3 3 3 3 2 3 4 9 13 18 16 18 21 23 26 27 27 26 26 26 27 27 27
10 12 11 11 11 12 11 9 8 6 5 6 6 5 3 3 3 3 3 2 2 3 3 4 3 1 5 13 17 18 15 20 24 25 26 26 25 26 26 27 27 27 28
9 12 12 11 11 11 11 10 8 7 6 5 5 5 3 3 3 3 3 4 3 3 3 4 3 3 10 13 15 15 14 23 26 25 25 25 26 26 27 27 27 27 27
13 15 14 13 12 11 11 9 8 7 6 5 4 5 3 3 3 3 3 4 4 5 4 4 4 5 8 11 17 17 19 24 23 24 25 25 26 27 27 27 27 27 28
16 16 15 14 13 12 11 9 7 8 7 5 4 4 4 4 3 3 3 3 4 4 6 5 4 4 5 8 13 17 18 18 18 23 25 27 27 27 27 28 28 28 28
15 15 15 13 12 11 10 10 9 7 6 5 3 3 3 3 4 4 4 4 4 5 5 7 4 4 6 8 8 9 15 17 17 23 26 26 27 27 28 28 27 27 28
15 14 14 13 11 10 9 8 8 7 6 4 3 1 2 3 4 4 5 5 5 5 5 6 6 4 5 7 8 10 10 11 17 20 24 25 26 27 27 27 27 28 28
15 14 13 12 11 10 9 8 8 7 6 5 3 1 2 4 5 5 5 6 6 5 5 5 6 6 6 7 7 8 11 7 10 14 20 22 24 25 26 27 28 28 29
15 14 14 12 11 9 8 8 7 6 5 4 3 3 3 4 6 5 5 5 5 4 5 5 6 7 8 7 8 7 12 11 10 10 10 9 10 11 16 23 25 27 28
15 14 13 12 9 8 11 11 7 5 4 3 3 4 5 5 7 8 10 11 11 7 5 5 7 10 11 10 9 11 12 14 10 4 6 11 9 12 10 12 24 28 29
14 13 11 10 9 9 10 9 8 4 3 3 3 3 3 5 7 5 9 12 11 14 15 11 11 11 12 11 11 12 12 13 15 10 11 16 10 13 11 18 27 30 31
11 10 9 8 7 7 8 8 8 5 3 3 2 2 3 4 7 8 6 5 5 7 12 10 10 12 12 11 11 12 13 12 12 10 9 13 13 13 13 9 26 30 30
10 8 7 7 6 6 7 6 7 3 1 1 2 3 5 5 12 14 8 7 8 9 15 19 20 19 22 23 18 10 8 11 15 13 7 6 8 10 11 12 16 24 24
8 7 6 5 5 4 5 4 5 3 1 2 3 4 8 10 13 14 8 8 9 9 9 10 11 14 14 16 19 9 7 10 12 9 4 4 6 8 8 6 8 9 14
Wind_Direction
177 176 177 175 177 168 149 132 119 110 96 80 79 92 113 130 114 101 95 93 90 87 81 72 62 52 44 37 32 27 22 19 17 13 10 7 4 359 354 350 345 342 339
178 177 172 171 169 159 145 130 122 109 84 75 70 83 112 137 128 115 107 101 98 93 84 70 57 45 36 28 23 20 18 15 12 8 3 -0 357 353 348 341 336 331 326
177 172 164 158 156 147 132 116 105 94 78 66 59 65 107 140 143 131 124 119 113 105 93 74 58 46 34 23 16 12 13 11 8 4 0 357 354 349 344 339 332 326 321
170 162 158 154 150 140 127 114 108 87 68 64 52 31 85 135 150 153 147 144 137 127 109 89 68 50 33 19 9 3 3 3 2 1 358 354 351 347 342 336 331 325 318
165 159 155 150 145 130 121 121 98 108 83 62 40 59 72 131 150 163 170 173 163 149 130 108 84 59 35 19 8 355 350 353 355 354 351 348 345 341 337 331 326 322 317
163 157 152 148 142 129 127 121 114 91 91 87 61 56 37 72 130 158 180 183 175 159 145 131 106 62 29 12 3 350 341 343 345 343 340 339 338 335 330 325 321 316 312
163 158 153 150 147 145 148 138 119 104 72 75 92 51 15 26 68 111 167 155 149 147 142 142 135 335 342 354 351 341 331 328 332 331 328 328 330 329 325 320 316 312 309
167 164 158 160 154 144 145 148 136 124 94 66 125 117 65 334 336 11 25 131 106 98 82 45 353 331 311 306 311 322 317 314 319 320 317 318 322 323 320 315 312 308 307
170 167 164 159 157 156 163 163 153 143 143 83 84 141 153 206 269 326 10 53 82 83 53 26 5 346 324 305 297 294 295 301 307 309 310 313 316 316 314 311 308 307 306
171 168 165 161 160 158 161 164 156 149 141 144 109 74 122 144 158 288 323 344 8 68 24 357 343 341 341 331 318 304 299 298 300 304 307 309 310 311 309 306 306 306 306
169 166 165 161 161 160 160 154 148 144 139 149 152 141 116 87 110 154 269 313 329 322 336 326 331 349 2 10 1 342 325 314 309 308 308 307 308 308 306 305 305 305 304
165 167 167 163 161 159 157 152 144 144 139 136 137 140 147 150 163 162 218 267 285 293 303 300 324 1 23 23 7 349 338 326 317 311 308 306 306 306 306 305 304 303 300
172 175 169 164 160 155 149 145 141 142 141 141 143 141 141 148 144 149 173 246 277 291 301 304 268 355 38 1 348 336 331 322 315 310 306 304 304 305 304 303 300 298 296
172 165 160 158 152 149 148 145 140 139 140 143 147 145 145 155 149 156 167 178 285 297 288 276 296 281 343 343 332 325 322 318 313 307 304 303 303 302 300 298 296 294 293
151 151 149 149 148 147 146 145 143 141 144 149 153 153 150 155 149 154 156 162 187 261 278 270 287 295 331 325 317 318 318 313 307 305 304 302 300 299 298 296 293 293 293
152 151 149 149 148 145 144 142 139 142 146 151 155 155 160 165 164 166 172 180 183 203 246 250 251 278 301 308 311 315 305 307 306 303 300 300 299 297 296 295 295 295 293
152 153 152 151 150 148 146 142 141 149 151 153 155 171 192 184 187 197 199 203 210 204 248 262 248 269 280 286 300 299 299 295 293 299 300 299 298 297 297 296 295 293 291
150 149 148 148 148 146 144 143 145 148 147 151 156 170 207 206 213 215 215 225 230 224 234 272 271 270 271 280 283 287 299 297 293 297 298 298 298 297 296 295 294 294 294
141 142 142 143 140 135 128 125 124 120 114 111 113 165 236 226 236 236 234 237 241 247 239 265 283 272 272 281 287 286 285 283 288 294 297 298 296 296 296 296 297 297 296
135 133 129 123 119 114 111 110 108 102 95 85 71 44 277 241 240 243 242 243 246 256 263 269 282 287 282 281 281 292 299 282 285 292 291 291 292 295 295 295 295 294 293
120 116 112 106 104 104 107 106 100 95 87 67 33 349 303 277 267 265 258 245 241 250 265 273 287 297 298 301 299 296 301 301 289 279 276 277 282 280 284 287 290 289 287
105 104 104 106 101 102 108 103 100 91 79 51 359 335 314 301 302 313 307 301 296 290 292 285 290 296 297 294 293 296 300 303 300 267 282 292 284 283 279 274 283 286 287
99 98 98 99 100 107 111 110 107 104 79 46 13 358 353 342 347 311 301 302 301 301 300 298 294 289 290 290 289 291 291 292 295 297 298 293 286 284 280 282 286 287 288
99 100 102 108 116 130 131 125 112 97 82 56 37 17 323 314 315 304 281 280 277 282 286 285 272 273 276 277 275 288 294 295 289 284 277 284 288 284 284 276 285 285 286
101 104 117 134 143 148 146 135 128 124 106 346 313 319 329 317 313 312 310 298 288 282 292 293 292 292 295 299 301 299 294 298 298 295 276 271 283 291 287 277 275 281 284
116 121 123 134 149 169 173 152 143 164 213 297 310 316 327 321 312 311 305 292 292 287 284 290 295 296 293 292 297 288 277 289 295 296 255 255 285 305 297 257 250 266 278
Height
1528 1530 1531 1533 1534 1535 1536 1536 1537 1537 1536 1536 1535 1534 1533 1532 1532 1532 1531 1531 1531 1531 1531 1530 1530 1530 1529 1528 1527 1526 1525 1524 1523 1522 1521 1521 1520 1520 1520 1519 1519 1519 1519
1525 1527 1529 1530 1532 1533 1534 1535 1535 1535 1535 1534 1533 1532 1532 1531 1530 1530 1530 1530 1530 1530 1530 1530 1529 1528 1527 1526 1525 1524 1523 1522 1520 1519 1519 1518 1517 1516 1516 1515 1515 1515 1515
1523 1524 1526 1528 1530 1531 1532 1533 1533 1533 1533 1533 1532 1531 1530 1530 1529 1529 1529 1529 1529 1529 1529 1528 1528 1527 1525 1524 1523 1522 1520 1519 1517 1516 1515 1514 1513 1512 1511 1511 1510 1510 1510
1520 1522 1524 1525 1527 1529 1530 1531 1532 1531 1531 1531 1530 1530 1529 1528 1528 1528 1529 1528 1528 1528 1527 1527 1526 1525 1523 1522 1521 1519 1517 1516 1514 1513 1511 1510 1509 1508 1507 1506 1506 1505 1505
1518 1520 1522 1523 1525 1527 1528 1529 1530 1530 1529 1529 1528 1528 1527 1527 1527 1527 1528 1527 1527 1526 1526 1525 1524 1523 1521 1519 1518 1516 1514 1512 1510 1509 1508 1506 1505 1504 1503 1502 1501 1501 1500
1515 1517 1519 1521 1523 1525 1526 1527 1528 1528 1528 1527 1527 1526 1526 1525 1526 1526 1526 1526 1525 1524 1524 1523 1522 1520 1518 1516 1514 1512 1510 1508 1507 1505 1504 1503 1501 1500 1499 1498 1497 1496 1495
1511 1514 1516 1518 1521 1522 1524 1525 1525 1526 1526 1525 1525 1525 1524 1524 1524 1524 1524 1523 1523 1522 1521 1520 1518 1517 1515 1513 1510 1508 1506 1504 1503 1501 1500 1499 1497 1496 1494 1493 1492 1491 1490
1507 1510 1512 1515 1518 1519 1521 1522 1523 1524 1524 1523 1523 1522 1522 1523 1522 1522 1521 1520 1520 1519 1518 1517 1515 1513 1511 1508 1506 1504 1502 1500 1499 1497 1496 1495 1493 1491 1489 1488 1486 1485 1484
1502 1505 1508 1511 1514 1516 1518 1520 1521 1521 1521 1521 1521 1521 1520 1519 1519 1519 1518 1517 1516 1516 1515 1514 1512 1509 1506 1503 1501 1499 1498 1496 1494 1493 1492 1491 1488 1486 1484 1482 1481 1479 1478
1496 1500 1503 1506 1509 1512 1515 1516 1518 1518 1519 1518 1518 1518 1518 1517 1516 1515 1515 1514 1513 1513 1512 1510 1508 1505 1501 1499 1497 1495 1493 1491 1489 1488 1487 1485 1483 1480 1478 1476 1474 1472 1470
1490 1494 1498 1501 1504 1507 1510 1512 1514 1515 1515 1515 1515 1514 1514 1513 1512 1512 1511 1510 1510 1509 1507 1506 1503 1500 1497 1494 1492 1490 1487 1485 1484 1482 1480 1478 1476 1473 1470 1468 1466 1464 1462
1483 1487 1492 1495 1499 1502 1505 1508 1510 1511 1511 1511 1511 1510 1510 1509 1508 1507 1506 1504 1503 1502 1502 1501 1498 1495 1492 1489 1487 1484 1481 1479 1477 1474 1472 1470 1468 1465 1462 1459 1457 1455 1453
1475 1480 1485 1489 1493 1496 1500 1503 1505 1506 1507 1507 1507 1506 1505 1504 1503 1502 1501 1499 1497 1495 1494 1494 1492 1489 1486 1484 1481 1479 1475 1472 1469 1466 1464 1461 1459 1456 1453 1450 1448 1446 1445
1469 1473 1478 1483 1487 1490 1494 1497 1500 1502 1503 1503 1503 1502 1501 1500 1499 1498 1497 1496 1492 1489 1487 1487 1486 1483 1480 1478 1475 1471 1468 1464 1461 1458 1455 1452 1449 1446 1444 1442 1439 1437 1436
1463 1467 1472 1477 1481 1485 1489 1493 1495 1497 1499 1499 1499 1498 1497 1496 1495 1494 1493 1491 1490 1485 1480 1479 1479 1477 1474 1470 1467 1463 1459 1456 1452 1449 1446 1443 1440 1438 1435 1433 1431 1429 1427
1457 1462 1466 1471 1476 1480 1485 1489 1491 1493 1495 1495 1494 1494 1493 1492 1491 1490 1488 1486 1484 1481 1476 1473 1472 1471 1467 1463 1460 1456 1452 1448 1444 1441 1438 1435 1432 1430 1427 1425 1422 1420 1418
1451 1456 1461 1466 1471 1476 1481 1485 1487 1489 1490 1490 1490 1489 1488 1487 1486 1485 1483 1481 1479 1476 1470 1466 1465 1463 1459 1456 1452 1448 1444 1440 1437 1433 1430 1427 1424 1421 1418 1416 1413 1410 1408
1447 1452 1457 1462 1468 1473 1477 1481 1484 1485 1486 1486 1485 1485 1484 1482 1481 1480 1477 1475 1473 1470 1465 1460 1457 1455 1452 1449 1444 1441 1437 1433 1429 1425 1422 1418 1415 1412 1409 1406 1404 1401 1399
1442 1447 1453 1460 1466 1471 1475 1478 1480 1481 1481 1481 1481 1480 1479 1477 1476 1474 1471 1469 1466 1463 1459 1455 1450 1448 1445 1442 1437 1433 1429 1425 1421 1417 1413 1410 1406 1403 1401 1398 1395 1392 1389
1439 1444 1451 1458 1464 1469 1473 1475 1477 1477 1477 1477 1476 1475 1474 1472 1470 1468 1465 1463 1460 1457 1454 1450 1445 1441 1438 1435 1431 1425 1419 1416 1412 1409 1405 1402 1399 1396 1393 1390 1386 1383 1379
1437 1444 1451 1458 1464 1468 1471 1473 1474 1474 1473 1472 1471 1470 1469 1467 1464 1462 1459 1457 1454 1451 1448 1444 1440 1435 1431 1428 1424 1419 1413 1408 1403 1401 1396 1393 1390 1386 1383 1381 1377 1373 1369
1438 1446 1453 1459 1463 1467 1469 1470 1470 1470 1469 1468 1467 1465 1463 1461 1458 1456 1454 1452 1450 1447 1443 1439 1435 1431 1426 1423 1418 1414 1409 1402 1395 1394 1389 1384 1382 1377 1374 1371 1367 1363 1360
1442 1448 1455 1460 1463 1465 1466 1466 1466 1466 1465 1463 1462 1459 1457 1454 1452 1449 1447 1445 1443 1441 1438 1435 1430 1425 1421 1417 1413 1408 1403 1398 1392 1388 1383 1374 1372 1368 1365 1361 1358 1354 1351
1445 1450 1455 1459 1461 1462 1463 1464 1463 1462 1461 1458 1456 1453 1451 1448 1446 1444 1441 1439 1436 1434 1432 1428 1424 1419 1416 1412 1408 1404 1398 1391 1384 1381 1378 1368 1362 1359 1354 1351 1348 1345 1341
1446 1451 1455 1458 1460 1461 1461 1461 1460 1458 1456 1454 1451 1448 1445 1442 1441 1438 1437 1434 1430 1428 1425 1422 1418 1415 1411 1407 1403 1398 1392 1385 1376 1371 1370 1363 1355 1349 1342 1338 1337 1335 1332
1448 1452 1455 1458 1459 1460 1459 1457 1455 1453 1451 1448 1446 1444 1441 1438 1436 1435 1432 1429 1425 1421 1418 1414 1411 1408 1404 1401 1397 1393 1387 1380 1372 1364 1360 1357 1349 1344 1331 1324 1324 1323 1320